Taunton, MA

11:42 PM EDT on July 21, 2017 (GMT -0400)
Taunton Municipal

Weather History for KTAN - February, 2014

Change the Weather History Date:

Wednesday, February 19, 2014

  Actual Average Record
Temperature  
Mean Temperature 26 °F -  
Max Temperature 39 °F 40 °F 60 °F (2017)
Min Temperature 14 °F 21 °F -2 °F (1967)
Degree Days  
Heating Degree Days 38    
Moisture  
Dew Point 29 °F    
Average Humidity 86    
Maximum Humidity 93    
Minimum Humidity 62    
Precipitation  
Precipitation 0.32 in - - ()
Sea Level Pressure  
Sea Level Pressure 29.84 in    
Wind  
Wind Speed 5 mph (WNW)    
Max Wind Speed 10 mph    
Max Gust Speed -    
Visibility 6 miles    
Events Rain    
Averages and records for this station are not official NWS values.
T = Trace of Precipitation, MM = Missing Value Source: NWS Daily Summary

Daily Weather History Graph

Daily Weather History Graph

Search for Another Location

Airport or City:

Trip Planner

Search our weather history database for the weather conditions in past years. The results will help you decide how hot, cold, wet, or windy it might be!

Date:

Astronomy

Feb. 19, 2014 Rise Set
Actual Time 6:34 AM EST 5:22 PM EST
Civil Twilight 6:05 AM EST 5:50 PM EST
Nautical Twilight 5:33 AM EST 6:23 PM EST
Astronomical Twilight 5:01 AM EST 6:55 PM EST
Moon 10:17 PM EST (2/19) 8:33 AM EST (2/19)
Length of Visible Light 11h 44m
Length of Day
10h 47m
Waning Gibbous, 80% of the Moon is Illuminated
Feb 19
Waning Gibbous
Feb 22
Last Quarter
Mar 1
New
Mar 8
First Quarter
Mar 16
Full

Hourly Weather History & Observations

Time (EST) Temp. Windchill Dew Point Humidity Pressure Visibility Wind Dir Wind Speed Gust Speed Precip Events Conditions
12:52 AM 26.1 °F 19.4 °F 19.9 °F 78% 30.06 in 10.0 mi West 5.8 mph - N/A   Clear
1:52 AM 24.1 °F 18.2 °F 19.0 °F 81% 30.07 in 10.0 mi WSW 4.6 mph - N/A   Clear
2:52 AM 25.0 °F 17.1 °F 19.9 °F 81% 30.10 in 10.0 mi WSW 6.9 mph - N/A   Clear
3:52 AM 23.0 °F - 19.0 °F 85% 30.10 in 10.0 mi Calm Calm - N/A   Clear
4:52 AM 19.0 °F - 16.0 °F 88% 30.09 in 9.0 mi Calm Calm - N/A   Clear
5:52 AM 15.1 °F 9.4 °F 12.0 °F 88% 30.08 in 9.0 mi SW 3.5 mph - N/A   Clear
6:52 AM 14.0 °F - 10.9 °F 88% 30.05 in 8.0 mi Calm Calm - N/A   Clear
7:52 AM 21.0 °F - 19.0 °F 92% 30.06 in 9.0 mi Calm Calm - N/A   Clear
8:52 AM 28.9 °F 21.9 °F 23.0 °F 78% 30.03 in 10.0 mi SE 6.9 mph - N/A   Clear
9:52 AM 34.0 °F 26.0 °F 23.0 °F 64% 30.04 in 10.0 mi SE 10.4 mph - N/A   Clear
10:52 AM 37.0 °F 30.4 °F 25.0 °F 62% 29.98 in 10.0 mi SE 9.2 mph - N/A   Clear
11:52 AM 37.9 °F 31.5 °F 27.0 °F 65% 29.94 in 10.0 mi SE 9.2 mph - N/A   Clear
12:52 PM 39.0 °F 32.8 °F 28.9 °F 67% 29.90 in 10.0 mi SE 9.2 mph - N/A   Scattered Clouds
1:52 PM 39.0 °F 33.4 °F 30.9 °F 73% 29.83 in 10.0 mi ESE 8.1 mph - N/A   Overcast
2:52 PM 39.0 °F 35.7 °F 33.1 °F 79% 29.78 in 10.0 mi Variable 4.6 mph - 0.00 in   Overcast
3:06 PM 39.0 °F 35.7 °F 33.1 °F 79% 29.78 in 9.0 mi NW 4.6 mph - 0.00 in Rain Light Rain
3:14 PM 39.0 °F 35.7 °F 33.1 °F 79% 29.77 in 8.0 mi NW 4.6 mph - 0.00 in Rain Light Rain
3:24 PM 37.9 °F 35.5 °F 34.0 °F 86% 29.76 in 1.8 mi Variable 3.5 mph - 0.05 in Rain Heavy Rain
3:45 PM 37.0 °F 33.3 °F 35.1 °F 93% 29.74 in 1.8 mi NE 4.6 mph - 0.14 in Rain Rain
3:49 PM 37.4 °F 32.8 °F 35.6 °F 93% 29.73 in 2.0 mi Variable 5.8 mph - 0.14 in Rain Rain
3:52 PM 37.0 °F 34.5 °F 34.0 °F 89% 29.73 in 2.0 mi NE 3.5 mph - 0.15 in Rain Rain
4:04 PM 37.0 °F 34.5 °F 34.0 °F 89% 29.73 in 1.5 mi NNE 3.5 mph - 0.04 in Rain Rain
4:27 PM 36.0 °F - 34.0 °F 93% 29.71 in 2.5 mi Calm Calm - 0.09 in Rain Light Rain
4:42 PM 36.0 °F - 33.1 °F 89% 29.69 in 2.5 mi Calm Calm - 0.10 in Rain Light Rain
4:52 PM 36.0 °F - 33.1 °F 89% 29.70 in 2.5 mi Calm Calm - 0.11 in Rain Light Rain
5:04 PM 36.0 °F - 33.1 °F 89% 29.69 in 3.0 mi Calm Calm - 0.00 in   Overcast
5:15 PM 36.0 °F 32.1 °F 33.1 °F 89% 29.69 in 2.5 mi North 4.6 mph - 0.00 in   Overcast
5:27 PM 36.0 °F 31.1 °F 33.1 °F 89% 29.69 in 3.0 mi NNW 5.8 mph - 0.00 in   Overcast
5:52 PM 35.1 °F 30.1 °F 33.1 °F 92% 29.69 in 3.0 mi NW 5.8 mph - 0.00 in   Overcast
6:42 PM 35.1 °F 30.1 °F 33.1 °F 92% 29.70 in 2.5 mi WNW 5.8 mph - N/A   Overcast
6:52 PM 35.1 °F 30.1 °F 33.1 °F 92% 29.70 in 3.0 mi Variable 5.8 mph - N/A   Overcast
7:10 PM 35.1 °F 31.0 °F 33.1 °F 92% 29.69 in 2.5 mi NW 4.6 mph - N/A   Overcast
7:52 PM 35.1 °F 30.1 °F 33.1 °F 92% 29.70 in 2.5 mi NW 5.8 mph - N/A   Overcast
8:52 PM 35.1 °F 31.0 °F 33.1 °F 92% 29.75 in 2.0 mi West 4.6 mph - N/A   Overcast
9:42 PM 34.0 °F 28.0 °F 32.0 °F 92% 29.75 in 3.0 mi NW 6.9 mph - 0.03 in Rain Light Rain
9:52 PM 34.0 °F 28.8 °F 32.0 °F 92% 29.76 in 3.0 mi WNW 5.8 mph - 0.04 in Rain Light Rain
10:24 PM 34.0 °F 29.8 °F 32.0 °F 92% 29.78 in 5.0 mi WNW 4.6 mph - 0.02 in Rain Light Rain
10:39 PM 34.0 °F 28.8 °F 32.0 °F 92% 29.79 in 5.0 mi West 5.8 mph - 0.02 in Rain Light Rain
10:52 PM 34.0 °F 28.0 °F 32.0 °F 92% 29.80 in 6.0 mi West 6.9 mph - 0.02 in   Overcast
11:45 PM 34.0 °F 29.8 °F 32.0 °F 92% 29.83 in 6.0 mi WNW 4.6 mph - N/A   Overcast
11:52 PM 34.0 °F 29.8 °F 32.0 °F 92% 29.84 in 6.0 mi WNW 4.6 mph - N/A   Overcast